Regional Weather Roundup
Issued by NWS Wakefield, VA

Home | Current Version | Previous Version | Graphics & Text | Print | Product List | Glossary On
Versions: 1 2 3 4 5 6 7 8 9 10 11 12 13 14 15 16 17 18 19 20 21 22 23 24 25 26 27 28 29 30 31 32 33 34 35 36 37 38 39 40 41 42 43 44 45 46 47 48 49 50
000
ASUS41 KAKQ 300113
RWRAKQ

REGIONAL WEATHER ROUNDUP
NATIONAL WEATHER SERVICE WAKEFIELD VA
900 PM EDT SUN MAR 29 2015

Note: "fair" indicates few or no clouds below 12,000 feet with no
significant weather and/or obstructions to visibility. * = Denotes
station may not report precipitation (e.g., rain,snow,etc.),
thunder or fog.

VAZ042-051-052>054-056-300200-
NORTHERN VIRGINIA

CITY           SKY/WX    TMP DP  RH WIND       PRES   REMARKS
WASH NATIONAL  FAIR      44  13  28 S8        30.21S
DULLES         PTCLDY    39   8  27 S7        30.18S
FORT BELVOIR   PTCLDY    37  14  39 SE1       30.20S
QUANTICO       PTCLDY    44  17  33 SW6       30.22S
FREDERICKSBRG* PTCLDY    42  11  28 S8        30.20R
STAFFORD*      PTCLDY    39   3  22 S3        30.24R
WARRENTON      PTCLDY    40  18  40 S5        30.17F
CULPEPER*      MOCLDY    39  12  33 S3        30.18F
MANASSAS*      NOT AVBL
LEESBURG*      MOCLDY    43  14  31 S7        30.18S
WINCHESTER     MOCLDY    43  -4  14 S9        30.10F
FRONT ROYAL*   FAIR      43   9  24 S6        30.10F
LURAY*         FAIR      43  14  31 S3        30.11F
$$

VAZ048-049-060>072-079>083-300200-
CENTRAL AND SOUTH CENTRAL VIRGINIA

CITY           SKY/WX    TMP DP  RH WIND       PRES   REMARKS
RICHMOND       MOCLDY    40  14  34 S5        30.23F
CHESTERFIELD*  NOT AVBL
PETERSBURG*    PTCLDY    37  16  42 CALM      30.24F
HANOVER        PTCLDY    36  15  42 S3        30.23F
TAPPAHANNOCK*  PTCLDY    37   5  25 S5        30.23F
QUINTON*       FAIR      37  14  38 CALM      30.23F
CHARLOTTSVILLE MOCLDY    43   8  23 S9        30.16F
GORDONSVILLE*  FAIR      37  13  37 CALM      30.17F
ORANGE*        MOCLDY    41   9  26 SE3       30.20F
LOUISA*        PTCLDY    43   9  24 S3        30.18F
BUMPASS*       FAIR      39   8  27 MISG      30.20S
FARMVILLE*     MOCLDY    43  11  27 S3        30.20S
CREWE*         FAIR      40  12  32 MISG      30.21S
FORT PICKETT*  FAIR      38  16  40 S6        30.22F
CHASE CITY*    FAIR      40  23  52 CALM      30.22F
CLARKSVILLE*   FAIR      39  18  41 S3        30.22F
SOUTH HILL*    PTCLDY    35  20  55 CALM      30.29F
LAWRENCEVILLE* FAIR      37  19  46 CALM      30.24F
EMPORIA*       PTCLDY    32  23  69 CALM      30.27F
$$

VAZ088>098-300200-
SOUTHEAST VIRGINIA

CITY           SKY/WX    TMP DP  RH WIND       PRES   REMARKS
NORFOLK        CLEAR     40  15  36 CALM      30.29R
VIRGINIA BEACH PTCLDY    39  22  50 SE7       30.29R
NORFOLK NAVAL  NOT AVBL
WEST POINT*    PTCLDY    37  18  46 SE3       30.26F
SALUDA*        FAIR      35  21  58 S7        30.25F
NEWPORT NEWS   NOT AVBL
LANGLEY AFB    CLEAR     37  27  65 S3        30.27S
FORT EUSTIS    CLEAR     36  18  47 SE2       30.25S
WILLIAMSBURG*  CLEAR     37  23  56 S5        30.27F
HR EXEC AP*    FAIR      30  19  64 CALM      30.30S
FRANKLIN*      CLEAR     38  21  50 SE3       30.28F
WAKEFIELD      CLEAR     34  22  61 CALM      30.26F
$$

VAZ020-022-025-037-045-300200-
WEST CENTRAL AND SOUTHWEST VIRGINIA

CITY           SKY/WX    TMP DP  RH WIND       PRES   REMARKS
STAUNTON*      CLOUDY    43   8  23 S8        30.13F
WAYNESBORO*    FAIR      41   7  24 S10G16    30.11F
HOT SPRINGS VA MOCLDY    34   3  27 S15       30.04F WCI  24
LYNCHBURG      CLOUDY    40  11  30 S8        30.18F
DANVILLE       CLOUDY    45  11  25 S5        30.22F
SOUTH BOSTON*  FAIR      42  12  28 S3        30.22F
MARTINSVILLE   MOCLDY    45  11  25 S5        30.21F
ROANOKE        PTCLDY    46   8  21 S8        30.16F
BLACKSBURG     MOCLDY    41  11  29 S7        30.15S
DUBLIN*        PTCLDY    44  14  30 SW7       30.15R
MARION*        PTCLDY    46   8  21 CALM      30.14S
HILLSVILLE*    PTCLDY    40  14  34 S8G16     30.14S
RICHLANDS*     FAIR      45 -48   1 SW6       30.08S
WISE*          PTCLDY    46   5  18 S15G24    30.06F
ABINGDON*      CLEAR     43  18  36 CALM      30.11S
$$

MDZ021>025-VAZ099-100-300200-
SOUTHERN MARYLAND AND THE DELMARVA PENINSULA

CITY           SKY/WX    TMP DP  RH WIND       PRES   REMARKS
PATUXENT RIVER CLEAR     36  11  35 S6        30.22S
BAY BRIDGE APT   N/A     37  19  48 S8        30.21F
LEONARDTOWN    CLEAR     36  10  35 SE3       30.23F
DOVER          CLEAR     34  16  47 S6        30.22R
GEORGETOWN     CLEAR     35  15  44 CALM      30.24S
EASTON         CLEAR     37  16  41 S6        30.25F
CAMBRIDGE      CLEAR     36  23  60 SE3       30.23S
SALISBURY      CLEAR     30  19  63 CALM      30.24F
OCEAN CITY     FAIR      36  26  67 SW5       30.25F
WALLOPS ISLAND CLEAR     33  13  43 SW3       30.26F
ACCOMACK*      CLEAR     30  16  55 S7        30.27S
$$

NCZ012>017-030>032-300200-
NORTH CENTRAL AND EASTERN NORTH CAROLINA

CITY           SKY/WX    TMP DP  RH WIND       PRES   REMARKS
ROANOKE RAPIDS FAIR      39  18  41 S5        30.26F
RALEIGH        PTCLDY    43  18  36 S5        30.25F
ELIZABETH CITY CLEAR     37  20  50 CALM      30.31S
AHOSKIE*       PTCLDY    32  27  80 CALM      30.29F
EDENTON*       CLEAR     38  23  55 CALM      30.31S
CURRITUCK*     CLEAR     36  23  59 CALM      30.31F
KILL DEVIL HLS CLEAR     33  22  64 SE3       30.31S
MANTEO         CLEAR     34  23  63 CALM      30.33S
CAPE HATTERAS  CLEAR     33  24  69 E5        30.33F
TARBORO*       FAIR      38  33  80 S3        30.29F
GOLDSBORO      CLEAR     42  21  42 S5        30.28F
WASHINGTON     CLEAR     38  26  63 CALM      30.32S
GREENVILLE     CLEAR     41  23  48 CALM      30.31F
NEW BERN       CLEAR     37  23  56 CALM      30.34R
WILMINGTON     CLEAR     40  30  67 S5        30.33S
$$

VAZ048-300200-
ELSEWHERE

CITY           SKY/WX    TMP DP  RH WIND       PRES   REMARKS
HARRISBURG PA  PTCLDY    40  10  29 S8        30.14R
BALTIMORE      MOCLDY    38   5  25 SE3       30.18F
ANNAPOLIS      CLEAR     37  23  56 S8        30.20F
ANDREWS AFB    FAIR      36  11  36 S7        30.18F
PHILADELPHIA   PTCLDY    40  14  34 S8        30.19S
HENDERSON NC   CLEAR     41  12  30 S6        30.24F
GREENSBORO     MOCLDY    46  11  24 S8        30.21F
ROCKY MOUNT    PTCLDY    37  25  61 S3        30.28F
$$

VAZ100-300200-
MARINE

STATION/POSITION TIME  TEMP    WIND        PRES    WAVE   SWELL
                       AIR SEA DIR/SP/G            HT/PER HT/PER
                 (UTC) (F)     (DEG/KT/KT) (MB)    (FT/S) (FT/S)
BRANDYWINE LGT   0012          240/  8/  9   N/A
CAPE MAY NJ      0000   40 43  240/  8/  9 1023.0F
LEWES DE         0000   38 41  200/  3/  4 1023.5F
15NM E FENWICK I 0050   36 40              1023.9F   3/ 9
OCEAN-CITY-INLET 0012   37 40  190/  7/ 11 1024.0F
WACHAPREAGUE VA  0000   36 45   CALM  /  2 1025.1F
THOMAS POINT MD  0100                        N/A
COVE POINT MD    0000   38     180/ 10/ 11 1023.3F
SOLOMONS ISLAND  0000      43                N/A
BISHOPS HEAD MD  0012   32     160/  8/  9   N/A
PINEY POINT MD   0012          180/  7/  7   N/A
CAMBRIDGE MD     0000   39 42  170/  4/  6 1023.4F
LEWISETTA VA     0000   39 44              1023.8F
RAPPAHANNOCK LGT 0000          180/  5/  6 1025.7F
STINGRAY PT      0100   40 45  170/ 12/ 14   N/A
YORK RVR RNG VA  0000   41     160/  9/ 10 1024.5F
YORKTOWN VA      0000      45  210/  4/  5 1024.7F
DOMINION TERM VA 0000   44     160/  5/  6 1025.3F
KIPTOPEKE VA     0000      48  130/  3/  5   N/A
CHES BAY BRIDGE  0012   41 43  130/  4/  6 1025.1F
CAPE HENRY VA    0000   39     120/  4/  4 1024.1F
CHESAPEAKE LGHT  0000   38      80/  3/  3 1026.4F
WILLOUBY STN VA  0000   43     210/  5/  5 1025.8F
S CRANEY ISL VA  0000             CALM     1025.3F
CAPE HENRY BUOY  0028      40                N/A     2/10
1ST LANDING BUOY 0100   40     160/ 10/ 14 1025.3R   1/ 5
OFFSHORE WE BUOY 0011      40                N/A     3/ 6   3/ 6
64NM E OF VA BCH 0050   40 54  320/  8/ 12 1026.1R   5/10   5/10
DUCK PIER NC     0000   37 43  130/  6/  7 1025.8S
44056 DUCK FRF   0011      43                N/A     3/ 6
OREGON INLET NC  0000   36 45  100/  2/  3 1027.2R
HATTERAS NC      0000      49   CALM  /  3 1027.9R
CAPE LOOKOUT NC  0100   45     260/  1/  1 1026.8F
$$



USA.gov is the U.S. government's official web portal to all federal, state and local government web resources and services.